Date String (YYYY-MM-DD hh:mm:ss) UTC,Instrument flags,Ambient pressure (hPa),Sample flow (lpm),Bypass flow (lpm),Sample temperature (°C),Ambient temperature (°C),ASC tube jacket temperature (°C),LED temperature (°C),Box temperature (°C),Sample RH (%),Span deviation,Mass concentration (μg/m³),Mass concentration (μg/m³),Mass concentration (μg/m³)
DateTimeUTC,F1_M11,P_M11,Q1_M11,Q2_M11,T1_M11,T2_M11,T3_M11,T4_M11,T5_M11,U1_M11,ZSPAN_M11,X0_M11,X2_M11,X1_M11
2021-09-17 14:00:00,,0835.9,5.00,0.00,30.3,29.4,00.0,39.5,32.0,17.2,0000.0,0015.72,0004.34,0003.30
2021-09-17 14:01:00,,0835.9,5.01,0.00,30.3,29.3,00.0,39.5,32.0,17.2,0000.0,0015.90,0004.37,0003.30
2021-09-17 14:02:00,,0835.9,5.00,0.00,30.2,29.3,00.0,39.4,32.0,17.2,0000.0,0016.07,0004.42,0003.30
2021-09-17 14:03:00,,0835.9,5.00,0.00,30.2,29.3,00.0,39.4,31.9,17.3,0000.0,0015.97,0004.40,0003.30
2021-09-17 14:04:00,,0835.9,4.99,0.00,30.2,29.2,00.0,39.4,31.9,17.2,0000.0,0015.73,0004.44,0003.30
2021-09-17 14:05:00,,0835.9,4.99,0.00,30.1,29.2,00.0,39.4,31.8,17.3,0000.0,0015.78,0004.48,0003.30
2021-09-17 14:06:00,,0835.9,5.01,0.00,30.1,29.2,00.0,39.4,31.8,17.4,0000.0,0015.98,0004.48,0003.30
2021-09-17 14:07:00,,0835.9,4.99,0.00,30.1,29.2,00.0,39.3,31.8,17.5,0000.0,0015.54,0004.47,0003.29
2021-09-17 14:08:00,,0835.9,5.00,0.00,30.1,29.2,00.0,39.3,31.8,17.5,0000.0,0015.99,0004.49,0003.30
2021-09-17 14:09:00,,0835.9,5.00,0.00,30.1,29.3,00.0,39.3,31.8,17.3,0000.0,0015.94,0004.50,0003.30
2021-09-17 14:10:00,,0836.0,4.99,0.00,30.1,29.2,00.0,39.3,31.8,17.2,0000.0,0014.96,0004.46,0003.30
2021-09-17 14:11:00,,0836.0,5.01,0.00,30.1,29.2,00.0,39.3,31.8,17.1,0000.0,0014.47,0004.48,0003.30
2021-09-17 14:12:00,,0835.9,4.99,0.00,30.1,29.2,00.0,39.3,31.9,17.1,0000.0,0014.16,0004.43,0003.28
2021-09-17 14:13:00,,0836.0,5.02,0.00,30.1,29.2,00.0,39.3,31.8,17.1,0000.0,0014.01,0004.39,0003.26
2021-09-17 14:14:00,,0836.0,5.00,0.00,30.1,29.3,00.0,39.3,31.8,17.1,0000.0,0014.05,0004.41,0003.26
2021-09-17 14:15:00,,0836.0,5.00,0.00,30.1,29.2,00.0,39.3,31.8,17.2,0000.0,0014.24,0004.41,0003.25
2021-09-17 14:16:00,,0835.9,4.99,0.00,30.1,29.2,00.0,39.3,31.8,17.1,0000.0,0015.28,0004.38,0003.25
2021-09-17 14:17:00,,0836.0,5.01,0.00,30.1,29.3,00.0,39.3,31.9,17.1,0000.0,0014.97,0004.42,0003.24
2021-09-17 14:18:00,,0836.0,5.00,0.00,30.1,29.2,00.0,39.3,31.9,17.0,0000.0,0014.03,0004.44,0003.24
2021-09-17 14:19:00,,0836.0,5.00,0.00,30.1,29.3,00.0,39.3,31.8,17.1,0000.0,0013.21,0004.47,0003.24
2021-09-17 14:20:00,,0836.0,5.01,0.00,30.1,29.3,00.0,39.3,31.9,17.1,0000.0,0013.73,0004.52,0003.24
2021-09-17 14:21:00,,0836.0,4.99,0.00,30.1,29.3,00.0,39.3,31.9,17.0,0000.0,0014.79,0004.56,0003.24
2021-09-17 14:22:00,,0836.0,5.00,0.00,30.1,29.3,00.0,39.3,31.9,17.0,0000.0,0015.01,0004.60,0003.25
2021-09-17 14:23:00,,0836.0,5.01,0.00,30.1,29.3,00.0,39.3,31.9,16.9,0000.0,0015.00,0004.62,0003.26
2021-09-17 14:24:00,,0835.9,5.00,0.00,30.1,29.3,00.0,39.3,31.9,16.9,0000.0,0015.03,0004.60,0003.27
2021-09-17 14:25:00,,0836.0,5.00,0.00,30.1,29.3,00.0,39.3,31.8,16.8,0000.0,0014.78,0004.58,0003.27
2021-09-17 14:26:00,,0836.0,5.02,0.00,30.1,29.3,00.0,39.2,31.8,16.8,0000.0,0014.36,0004.55,0003.29
2021-09-17 14:27:00,,0836.0,4.99,0.00,30.1,29.3,00.0,39.2,31.8,16.8,0000.0,0013.32,0004.52,0003.29
2021-09-17 14:28:00,,0835.9,5.01,0.00,30.1,29.2,00.0,39.2,31.8,16.8,0000.0,0013.23,0004.46,0003.30
2021-09-17 14:29:00,,0836.0,5.00,0.00,30.1,29.2,00.0,39.2,31.8,16.7,0000.0,0014.69,0004.42,0003.30
2021-09-17 14:30:00,,0835.9,4.99,0.00,30.1,29.2,00.0,39.2,31.8,16.8,0000.0,0015.11,0004.36,0003.30
2021-09-17 14:31:00,,0835.9,5.00,0.00,30.1,29.3,00.0,39.2,31.8,16.7,0000.0,0015.06,0004.30,0003.31
2021-09-17 14:32:00,,0836.0,5.00,0.00,30.1,29.2,00.0,39.2,31.8,16.8,0000.0,0013.61,0004.27,0003.33
2021-09-17 14:33:00,,0836.0,5.00,0.00,30.1,29.2,00.0,39.2,31.8,16.8,0000.0,0012.94,0004.19,0003.33
2021-09-17 14:34:00,,0835.9,5.00,0.00,30.1,29.2,00.0,39.2,31.7,16.7,0000.0,0012.55,0004.18,0003.33
2021-09-17 14:35:00,,0836.0,5.00,0.00,30.1,29.2,00.0,39.2,31.8,16.7,0000.0,0012.45,0004.20,0003.34
2021-09-17 14:36:00,,0836.0,5.01,0.00,30.0,29.2,00.0,39.2,31.7,16.6,0000.0,0012.44,0004.20,0003.34
2021-09-17 14:37:00,,0836.1,4.99,0.00,30.0,29.2,00.0,39.2,31.7,16.4,0000.0,0011.85,0004.20,0003.34
2021-09-17 14:38:00,,0836.1,4.99,0.00,30.0,29.2,00.0,39.2,31.7,16.4,0000.0,0012.01,0004.21,0003.35
2021-09-17 14:39:00,,0836.0,5.00,0.00,30.0,29.2,00.0,39.2,31.7,16.4,0000.0,0012.31,0004.18,0003.35
2021-09-17 14:40:00,,0836.0,5.00,0.00,30.0,29.1,00.0,39.2,31.7,16.5,0000.0,0010.83,0004.18,0003.36
2021-09-17 14:41:00,,0836.0,4.99,0.00,30.0,29.1,00.0,39.2,31.7,16.5,0000.0,0010.55,0004.21,0003.37
2021-09-17 14:42:00,,0836.0,5.01,0.00,30.0,29.1,00.0,39.1,31.7,16.5,0000.0,0009.59,0004.19,0003.38
2021-09-17 14:43:00,,0836.0,5.00,0.00,30.0,29.1,00.0,39.1,31.7,16.5,0000.0,0010.15,0004.20,0003.37
2021-09-17 14:44:00,,0835.9,4.99,0.00,30.0,29.1,00.0,39.1,31.7,16.5,0000.0,0011.55,0004.21,0003.39
2021-09-17 14:45:00,,0836.0,5.01,0.00,30.0,29.1,00.0,39.1,31.7,16.5,0000.0,0011.91,0004.23,0003.40
2021-09-17 14:46:00,,0836.0,5.00,0.00,30.0,29.1,00.0,39.1,31.7,16.4,0000.0,0012.46,0004.26,0003.43
2021-09-17 14:47:00,,0836.0,5.00,0.00,30.0,29.1,00.0,39.1,31.7,16.5,0000.0,0012.79,0004.31,0003.45
2021-09-17 14:48:00,,0836.0,5.01,0.00,30.0,29.1,00.0,39.1,31.7,16.5,0000.0,0012.99,0004.38,0003.46
2021-09-17 14:49:00,,0836.0,5.00,0.00,29.9,29.1,00.0,39.1,31.7,16.4,0000.0,0012.86,0004.39,0003.47
2021-09-17 14:50:00,,0836.0,4.99,0.00,29.9,29.1,00.0,39.1,31.7,16.5,0000.0,0012.15,0004.37,0003.48
2021-09-17 14:51:00,,0836.0,4.99,0.00,29.9,29.1,00.0,39.1,31.7,16.5,0000.0,0012.18,0004.37,0003.49
2021-09-17 14:52:00,,0836.0,5.00,0.00,29.9,29.1,00.0,39.1,31.7,16.6,0000.0,0011.64,0004.33,0003.50
2021-09-17 14:53:00,,0836.0,5.00,0.00,29.9,29.1,00.0,39.1,31.7,16.7,0000.0,0011.74,0004.36,0003.50
2021-09-17 14:54:00,,0836.0,5.00,0.00,29.9,29.1,00.0,39.1,31.7,16.6,0000.0,0011.62,0004.31,0003.51
2021-09-17 14:55:00,,0836.0,4.99,0.00,29.9,29.1,00.0,39.1,31.7,16.6,0000.0,0011.20,0004.35,0003.51
2021-09-17 14:56:00,,0836.0,5.00,0.00,29.9,29.1,00.0,39.1,31.7,16.6,0000.0,0011.40,0004.37,0003.52
2021-09-17 14:57:00,,0836.0,5.01,0.00,29.9,29.1,00.0,39.1,31.7,16.6,0000.0,0011.53,0004.34,0003.52
2021-09-17 14:58:00,,0836.0,5.00,0.00,29.9,29.1,00.0,39.1,31.7,16.7,0000.0,0011.13,0004.30,0003.52
2021-09-17 14:59:00,,0836.1,4.99,0.00,29.9,29.1,00.0,39.1,31.6,16.6,0000.0,0011.20,0004.27,0003.52
